[[{"header":{"parameterUnit":"m.s-1","parameterCategory":1,"la1":30.2991,"la2":30.254,"lo1":-89.0895,"lo2":-89.0444,"dy":0.0017,"dx":0.0017,"nx":28,"ny":28,"refTime":"2024-07-02T21:00:00:Z","depth":0,"parameterNumber":2,"parameterNumberName":"U-component_of_WINDS"},"data":[0,0,0,0,0,0,0,0,0,0,0,0,0,0,0,0,0,0,0,0,0,0,0,0,0,0,0,0,0,0,0,0,0,0,0,0,0,0,0,0,0,0,0,0,0,0,0,0,0,0,0,0,0,0,0,0,0,0,0.1089,0.1089,0,0.1123,0.1123,0.1123,0.1115,0.1114,0.1113,0.1113,0.1148,0.1149,0.1151,0,0,0,0,0,0,0,0,0,0,0,0,0,0.1017,0.1018,0.1089,0.1089,0.109,0.1122,0.1123,0.1123,0.1115,0.1114,0.1113,0.1112,0.1147,0.1149,0.1151,0,0,0,0,0,0,0,0,0,0,0,0,0,0.1049,0.1019,0.1089,0.1089,0.109,0.1122,0.1123,0.1124,0.1115,0.1114,0.1113,0.1112,0.1146,0.1149,0.1151,0.1185,0,0,0.1158,0.1159,0,0,0,0,0,0,0,0,0.1047,0.1052,0.1089,0.1089,0.109,0.1113,0.111,0.1144,0.1115,0.1105,0.1113,0.1112,0.1137,0.114,0.1149,0.1187,0.1188,0.1158,0.116,0.1161,0.1161,0,0,0,0,0,0,0,0.1045,0.105,0.1102,0.1089,0.109,0.1088,0.1091,0.1117,0.1126,0.1106,0.1106,0.111,0.1137,0.1146,0.1149,0.1189,0.1158,0.116,0.1162,0.1163,0.1255,0.1256,0,0,0,0,0,0,0.1042,0.1048,0.1101,0.1103,0.1066,0.109,0.1094,0.1107,0.1126,0.1128,0.1111,0.1109,0.1143,0.1147,0.1151,0.1191,0.1161,0.1163,0.1164,0.1254,0.1256,0.1257,0,0,0,0,0,0,0.1041,0.1047,0.11,0.1076,0.1082,0.1092,0.1107,0.1108,0.1117,0.1129,0.1131,0.1118,0.1142,0.1147,0.1176,0.1192,0.1164,0.1166,0.1253,0.1255,0.1256,0.1272,0,0,0,0,0,0,0.1039,0.1047,0.106,0.1076,0.1084,0.1125,0.1108,0.1109,0.1121,0.112,0.1137,0.1139,0.1142,0.1173,0.1179,0.1195,0.1168,0.1252,0.1254,0.1256,0.127,0.1274,0.1278,0,0,0,0,0,0.1036,0.1064,0.1061,0.1067,0.1101,0.1126,0.1131,0.1133,0.1123,0.1136,0.1143,0.1138,0.1189,0.1176,0.1182,0.1199,0.1251,0.1253,0.1255,0.1269,0.1273,0.1277,0,0,0,0,0,0,0.105,0.1066,0.1063,0.1096,0.111,0.1125,0.1142,0.1138,0.1155,0.1153,0.1156,0.116,0.1189,0.1197,0.1182,0.1233,0.1218,0.1222,0.1226,0.1231,0.1234,0.1232,0.117,0,0,0,0,0,0.1057,0.1076,0.1089,0.1118,0.1125,0.1132,0.1143,0.1144,0.1158,0.1164,0.1174,0.1188,0.1207,0.1219,0.1238,0.1271,0.1274,0.1286,0.129,0.1293,0.1296,0.1313,0.1318,0.1265,0.1265,0.1265,0,0,0.1071,0.1083,0.1095,0.1121,0.1131,0.1151,0.1137,0.1159,0.1174,0.1168,0.1195,0.1203,0.1218,0.125,0.1264,0.1257,0.1311,0.1296,0.1298,0.1299,0.1316,0.1321,0.1325,0.1266,0.1266,0.1266,0,0,0.1108,0.1119,0.1143,0.1153,0.1169,0.1174,0.1179,0.1194,0.1199,0.1227,0.1222,0.1239,0.1272,0.1283,0.1293,0.1332,0.1328,0.1338,0.1357,0.1373,0.1377,0.1381,0.1394,0.1398,0.1341,0.1341,0.1341,0,0.1124,0.1154,0.1156,0.1178,0.1188,0.1183,0.1207,0.1217,0.1239,0.1246,0.1238,0.1278,0.1289,0.1322,0.1331,0.134,0.1346,0.1336,0.1377,0.138,0.1384,0.1396,0.1401,0.1342,0.1342,0.1342,0.1342,0,0.1172,0.1193,0.121,0.123,0.1243,0.1266,0.1271,0.1284,0.1283,0.1288,0.1315,0.1327,0.1347,0.1355,0.1355,0.1388,0.1383,0.1376,0.1362,0.139,0.1401,0.1406,0.1344,0.1343,0.1343,0.1343,0,0,0.1219,0.1238,0.1245,0.1253,0.1269,0.1285,0.1307,0.1326,0.1337,0.1351,0.1369,0.1397,0.139,0.1401,0.1402,0.1416,0.1445,0.1407,0.1408,0.1413,0.148,0.1485,0.149,0.1442,0.1443,0.1444,0.1478,0,0.1256,0.1295,0.1296,0.1332,0.135,0.1345,0.1364,0.1376,0.1381,0.1397,0.1402,0.1421,0.1411,0.1417,0.1432,0.1438,0.1458,0.1436,0.1458,0.1459,0.1454,0.1497,0.1502,0.1534,0.1483,0.1484,0.1484,0,0.1305,0.132,0.1357,0.1369,0.1377,0.1394,0.1411,0.1426,0.1439,0.1442,0.1454,0.1452,0.1474,0.1459,0.1489,0.1473,0.1482,0.1487,0.1488,0.149,0.1473,0.1499,0.1545,0.155,0.1492,0.1491,0.1491,0,0.1334,0.1364,0.1389,0.1396,0.1412,0.1424,0.1431,0.1443,0.1453,0.1468,0.1475,0.1492,0.1501,0.1514,0.1517,0.1506,0.1546,0.1532,0.1548,0.1548,0.1557,0.1556,0.1605,0.1564,0.1564,0.1564,0.1564,0,0.1375,0.1398,0.1402,0.1418,0.1442,0.1444,0.1468,0.1474,0.1484,0.1501,0.1497,0.1513,0.1515,0.1531,0.1534,0.1557,0.1562,0.1564,0.1564,0.1564,0.1563,0.157,0.1567,0.1565,0.1565,0.1565,0.1564,0,0.1412,0.1416,0.1443,0.1455,0.1458,0.1476,0.1486,0.15,0.1505,0.1525,0.153,0.1537,0.1555,0.1559,0.1581,0.1582,0.161,0.1608,0.1605,0.1605,0.1621,0.1619,0.1674,0.1681,0.1637,0.1637,0.1638,0,0.1437,0.1454,0.1468,0.1478,0.1485,0.1502,0.1513,0.1515,0.1526,0.1541,0.1553,0.1571,0.1585,0.1615,0.1621,0.1638,0.1636,0.1654,0.1638,0.1637,0.1635,0.1634,0.1635,0.1657,0.1658,0.1658,0.1658,0,0.1482,0.1483,0.1498,0.1514,0.1527,0.1539,0.1551,0.156,0.1563,0.1575,0.1594,0.1605,0.1626,0.1644,0.166,0.1667,0.1663,0.1663,0.1668,0.1667,0.1665,0.1665,0.1613,0.1662,0.1661,0.1661,0.1661,0.1661,0.1514,0.1528,0.1539,0.1556,0.1565,0.1576,0.1589,0.1595,0.161,0.1627,0.1627,0.1647,0.1658,0.1679,0.1687,0.1702,0.1696,0.1703,0.1705,0.1706,0.1707,0.1662,0.1705,0.1705,0.1705,0.1705,0.1705,0,0.1557,0.1564,0.1579,0.1595,0.1608,0.1603,0.1616,0.1627,0.1644,0.1655,0.1668,0.1689,0.1705,0.1713,0.1729,0.1739,0.1738,0.1743,0.1742,0.1744,0.1712,0.1706,0.1744,0.1744,0.1744,0.1744,0.1744,0.1744,0.1581,0.1605,0.1607,0.1634,0.164,0.1659,0.1667,0.1676,0.1685,0.1707,0.1721,0.1725,0.1734,0.1751,0.1765,0.1767,0.1773,0.1779,0.178,0.175,0.1746,0.1742,0.1737,0.178,0.178,0.181,0.181,0.181]},{"header":{"parameterUnit":"m.s-1","parameterCategory":1,"la1":30.2991,"la2":30.254,"lo1":-89.0895,"lo2":-89.0444,"dy":0.0017,"dx":0.0017,"nx":28,"ny":28,"refTime":"2024-07-02T21:00:00:Z","depth":0,"parameterNumber":3,"parameterNumberName":"V-component_of_WINDS"},"data":[0,0,0,0,0,0,0,0,0,0,0,0,0,0,0,0,0,0,0,0,0,0,0,0,0,0,0,0,0,0,0,0,0,0,0,0,0,0,0,0,0,0,0,0,0,0,0,0,0,0,0,0,0,0,0,0,0,0,2.9539,2.9539,0,2.9581,2.9581,2.9582,2.954,2.9539,2.9537,2.9536,2.9575,2.9577,2.958,0,0,0,0,0,0,0,0,0,0,0,0,0,2.9418,2.942,2.9539,2.9539,2.954,2.9581,2.9581,2.9582,2.9541,2.9539,2.9537,2.9535,2.9574,2.9577,2.958,0,0,0,0,0,0,0,0,0,0,0,0,0,2.9466,2.9421,2.9539,2.9524,2.9523,2.958,2.9581,2.9582,2.9541,2.9539,2.9536,2.9534,2.9573,2.9576,2.958,2.9652,0,0,2.9592,2.9594,0,0,0,0,0,0,0,0,2.9463,2.9471,2.9526,2.9525,2.9525,2.9553,2.9553,2.9605,2.9542,2.9534,2.9536,2.9533,2.9569,2.9573,2.9586,2.9654,2.9656,2.9592,2.9595,2.9596,2.9597,0,0,0,0,0,0,0,2.946,2.9469,2.9555,2.9527,2.9526,2.9514,2.9518,2.9563,2.9565,2.9535,2.9532,2.9538,2.9568,2.9583,2.9587,2.9656,2.9592,2.9596,2.9598,2.9599,2.9783,2.9786,0,0,0,0,0,0,2.9459,2.9466,2.9554,2.9556,2.9488,2.9518,2.9523,2.9546,2.9564,2.9565,2.954,2.9536,2.9577,2.9582,2.9588,2.9672,2.9596,2.96,2.9602,2.9781,2.9784,2.9786,0,0,0,0,0,0,2.9457,2.9467,2.9552,2.9511,2.952,2.9523,2.9549,2.9548,2.9563,2.9568,2.9567,2.9554,2.9575,2.9583,2.9636,2.9673,2.9601,2.9605,2.9778,2.9782,2.9785,2.9842,0,0,0,0,0,0,2.9453,2.9467,2.9495,2.9512,2.9523,2.9602,2.9552,2.9551,2.957,2.9565,2.9581,2.9582,2.9574,2.9631,2.964,2.9677,2.9608,2.9774,2.9779,2.9784,2.9836,2.9847,2.9856,0,0,0,0,0,2.9449,2.9509,2.9497,2.9508,2.9559,2.9604,2.961,2.9601,2.9573,2.9601,2.9604,2.9581,2.9668,2.9637,2.9647,2.9685,2.9772,2.9778,2.9784,2.9832,2.9845,2.9856,0,0,0,0,0,0,2.9496,2.9511,2.9498,2.9565,2.9584,2.9597,2.9632,2.9615,2.9641,2.9635,2.9622,2.9626,2.9683,2.9689,2.9655,2.9755,2.9715,2.9723,2.9748,2.976,2.977,2.9767,2.9611,0,0,0,0,0,2.9515,2.9551,2.9562,2.962,2.963,2.963,2.9649,2.964,2.9658,2.9665,2.9673,2.969,2.972,2.9741,2.977,2.9837,2.9839,2.9868,2.9878,2.9886,2.9893,2.9927,2.994,2.9806,2.9806,2.9806,0,0,2.9553,2.9565,2.9589,2.963,2.9643,2.9679,2.9636,2.9677,2.9703,2.9671,2.9722,2.9728,2.9746,2.9807,2.9834,2.9814,2.993,2.9894,2.99,2.9902,2.9934,2.9947,2.9958,2.981,2.9809,2.9808,0,0,2.964,2.9655,2.9704,2.9718,2.9739,2.9738,2.975,2.9766,2.9768,2.982,2.9796,2.9826,2.988,2.9893,2.9907,2.9999,2.9978,3.0008,3.0059,3.0092,3.0103,3.0112,3.0143,3.0154,3.0015,3.0015,3.0015,0,2.9684,2.974,2.9731,2.9773,2.9791,2.9764,2.9813,2.9827,2.9856,2.9868,2.9845,2.9911,2.9922,2.9984,3.0006,3.0019,3.0031,3.0006,3.0102,3.0111,3.012,3.0149,3.0161,3.0019,3.0018,3.0018,3.0018,0,2.9792,2.9831,2.9868,2.9897,2.9919,2.9965,2.996,2.9983,2.9973,2.9973,3.0025,3.0037,3.0066,3.0081,3.0071,3.0141,3.0128,3.0105,3.0064,3.0136,3.0163,3.0175,3.0024,3.0022,3.0021,3.0021,0,0,2.9911,2.9934,2.9948,2.996,2.9981,3.001,3.0053,3.0083,3.0102,3.0122,3.0157,3.0202,3.018,3.0196,3.0187,3.0217,3.0286,3.0189,3.0189,3.0205,3.0363,3.038,3.0393,3.0273,3.0275,3.0277,3.0361,0,2.9998,3.0074,3.0067,3.0138,3.0173,3.0148,3.0185,3.02,3.0202,3.023,3.0231,3.0263,3.0232,3.0241,3.027,3.0272,3.0317,3.0266,3.0303,3.0305,3.0298,3.0408,3.0426,3.0504,3.0371,3.0373,3.0375,0,3.011,3.0135,3.0211,3.0225,3.0239,3.0272,3.0298,3.0326,3.0343,3.0342,3.0359,3.0344,3.0386,3.0345,3.0401,3.0366,3.0381,3.0384,3.0386,3.0388,3.0343,3.0411,3.0529,3.0541,3.0392,3.039,3.0389,0,3.0187,3.0239,3.0291,3.0302,3.032,3.0344,3.0353,3.0367,3.0385,3.0407,3.0419,3.0445,3.046,3.048,3.0472,3.0444,3.0528,3.0488,3.0527,3.0527,3.0545,3.0544,3.0666,3.0557,3.0557,3.0557,3.0557,0,3.0284,3.0331,3.0325,3.0357,3.0408,3.0398,3.0448,3.0453,3.0466,3.0496,3.0476,3.0505,3.0493,3.0521,3.0515,3.0561,3.0568,3.0567,3.0565,3.0568,3.0568,3.0577,3.0571,3.056,3.0559,3.0559,3.0558,0,3.0378,3.0377,3.0431,3.0444,3.0448,3.0485,3.0494,3.0523,3.0523,3.0562,3.057,3.057,3.0601,3.0596,3.0631,3.0626,3.0683,3.0675,3.0678,3.0676,3.0715,3.0711,3.0846,3.0862,3.0744,3.0745,3.0746,0,3.044,3.0475,3.0492,3.0511,3.0522,3.0554,3.0572,3.0563,3.0582,3.0603,3.0629,3.0659,3.0682,3.0733,3.0735,3.0761,3.0752,3.0797,3.0755,3.0757,3.075,3.0748,3.0751,3.0805,3.0806,3.0808,3.0808,0,3.0549,3.0546,3.0574,3.0602,3.0624,3.0645,3.0664,3.0681,3.0673,3.0696,3.0728,3.0746,3.0782,3.0811,3.0835,3.0841,3.0823,3.0822,3.0832,3.0835,3.0835,3.0834,3.0699,3.0818,3.0817,3.0817,3.0816,3.0816,3.0627,3.0657,3.0673,3.0704,3.0717,3.0735,3.0762,3.0766,3.0793,3.0822,3.0814,3.085,3.0864,3.0895,3.0904,3.0931,3.0914,3.0929,3.0933,3.0936,3.094,3.0832,3.0936,3.0935,3.0935,3.0935,3.0935,0,3.0734,3.0743,3.0772,3.0799,3.0823,3.0805,3.0824,3.0845,3.0878,3.0893,3.0916,3.0952,3.098,3.0984,3.101,3.1031,3.1023,3.1038,3.1035,3.1037,3.0955,3.0943,3.1044,3.1044,3.1044,3.1044,3.1044,3.1044,3.0792,3.084,3.084,3.0894,3.0902,3.0938,3.095,3.0966,3.0977,3.1019,3.1043,3.1045,3.1055,3.1082,3.1106,3.1106,3.1116,3.1134,3.1131,3.1054,3.1043,3.1033,3.1021,3.1136,3.1137,3.121,3.1211,3.1211]}]]